| time (UTC) | temp C | wind direction | speed KPH | gust KPH | rain 1hr cm | rain 24hr cm | rain mn cm | humidity % | barometer mb |
| 20260507132852 | 10 | 5 | 3.2 | 9.7 | 0.00 | 2.67 | 0.71 | 77 | 1002.4 |
| 20260507131354 | 9 | 281 | 3.2 | 14.5 | 0.00 | 2.74 | 0.71 | 81 | 1002.3 |
| 20260507125852 | 9 | 5 | 1.6 | 6.4 | 0.00 | 2.82 | 0.71 | 84 | 1002.1 |
| 20260507124352 | 8 | 12 | 1.6 | 8.0 | 0.00 | 2.84 | 0.71 | 87 | 1002.7 |
| 20260507122854 | 7 | 256 | 0.0 | 8.0 | 0.00 | 2.84 | 0.71 | 89 | 1002.3 |
| 20260507121352 | 7 | 282 | 1.6 | 9.7 | 0.00 | 2.84 | 0.71 | 90 | 1002.7 |
| 20260507115852 | 7 | 336 | 1.6 | 9.7 | 0.00 | 2.84 | 0.71 | 92 | 1002.3 |
| 20260507114352 | 6 | 50 | 1.6 | 8.0 | 0.00 | 2.84 | 0.71 | 93 | 1002.3 |
| 20260507112854 | 6 | 281 | 1.6 | 6.4 | 0.00 | 2.84 | 0.71 | 93 | 1002.6 |
| 20260507111354 | 6 | 313 | 0.0 | 11.3 | 0.00 | 2.84 | 0.71 | 93 | 1002.3 |
| 20260507105854 | 6 | 265 | 1.6 | 8.0 | 0.00 | 2.84 | 0.71 | 94 | 1002.5 |
| 20260507104352 | 6 | 289 | 0.0 | 6.4 | 0.00 | 2.84 | 0.71 | 94 | 1002.5 |
| 20260507102851 | 5 | 317 | 0.0 | 3.2 | 0.00 | 2.84 | 0.71 | 94 | 1002.6 |
| 20260507101351 | 5 | 318 | 0.0 | 1.6 | 0.00 | 2.84 | 0.71 | 94 | 1002.6 |
| 20260507095853 | 5 | 321 | 0.0 | 0.0 | 0.00 | 2.84 | 0.71 | 94 | 1002.4 |
| 20260507095055 | 5 | 321 | 0.0 | 0.0 | 0.00 | 2.84 | 0.71 | 94 | 1002.4 |
| 20260507092852 | 5 | 321 | 0.0 | 4.8 | 0.00 | 2.84 | 0.71 | 94 | 1002.4 |
| 20260507091352 | 5 | 311 | 0.0 | 4.8 | 0.00 | 2.84 | 0.71 | 94 | 1002.4 |
| 20260507085851 | 5 | 355 | 0.0 | 0.0 | 0.00 | 2.87 | 0.71 | 95 | 1002.3 |
| 20260507084352 | 6 | 355 | 0.0 | 4.8 | 0.00 | 2.87 | 0.71 | 95 | 1002.1 |
| 20260507082851 | 6 | 351 | 0.0 | 4.8 | 0.00 | 2.87 | 0.71 | 95 | 1002.0 |
| 20260507081352 | 6 | 351 | 0.0 | 3.2 | 0.03 | 2.90 | 0.71 | 95 | 1002.1 |
| 20260507075852 | 6 | 355 | 1.6 | 6.4 | 0.05 | 2.90 | 0.71 | 95 | 1002.2 |
| 20260507074350 | 6 | 338 | 0.0 | 1.6 | 0.10 | 2.92 | 0.71 | 95 | 1002.3 |
| 20260507072847 | 6 | 338 | 0.0 | 3.2 | 0.18 | 2.92 | 0.71 | 95 | 1002.2 |
| 20260507071347 | 6 | 331 | 0.0 | 3.2 | 0.25 | 2.92 | 0.69 | 95 | 1002.2 |
| 20260507065848 | 6 | 325 | 0.0 | 1.6 | 0.30 | 2.90 | 0.66 | 95 | 1002.3 |
| 20260507064348 | 6 | 324 | 0.0 | 3.2 | 0.25 | 2.87 | 0.61 | 95 | 1002.3 |
| 20260507062848 | 6 | 323 | 0.0 | 1.6 | 0.18 | 2.79 | 0.53 | 95 | 1002.2 |
| 20260507061348 | 6 | 327 | 0.0 | 0.0 | 0.10 | 2.69 | 0.43 | 95 | 1002.3 |
| 20260507060543 | 6 | 328 | 0.0 | 0.0 | 0.08 | 2.62 | 0.38 | 95 | 1002.3 |
| 20260507054348 | 6 | 355 | 0.0 | 0.0 | 0.15 | 2.62 | 0.36 | 95 | 1002.4 |
| 20260507052848 | 6 | 355 | 0.0 | 0.0 | 0.20 | 2.62 | 0.36 | 95 | 1002.6 |
| 20260507051348 | 6 | 355 | 0.0 | 0.0 | 0.25 | 2.62 | 0.33 | 95 | 1002.9 |
| 20260507050545 | 7 | 355 | 0.0 | 3.2 | 0.28 | 2.59 | 0.28 | 94 | 1003.1 |
| 20260507044347 | 7 | 355 | 0.0 | 4.8 | 0.23 | 2.51 | 0.20 | 94 | 1003.1 |
| 20260507042848 | 7 | 349 | 0.0 | 1.6 | 0.18 | 2.46 | 0.15 | 94 | 1003.2 |
| 20260507041349 | 7 | 349 | 0.0 | 6.4 | 0.10 | 2.39 | 0.08 | 94 | 1003.6 |
| 20260507035846 | 7 | 5 | 1.6 | 8.0 | 0.03 | 2.31 | 2.31 | 94 | 1003.7 |
| 20260507034346 | 7 | 355 | 1.6 | 9.7 | 0.03 | 2.31 | 2.29 | 95 | 1003.5 |
| 20260507032846 | 7 | 347 | 0.0 | 6.4 | 0.03 | 2.41 | 2.29 | 95 | 1003.3 |
| 20260507031342 | 7 | 306 | 0.0 | 6.4 | 0.05 | 2.46 | 2.29 | 95 | 1003.3 |
| 20260507025843 | 7 | 346 | 0.0 | 1.6 | 0.05 | 2.46 | 2.29 | 95 | 1003.4 |
| 20260507024342 | 7 | 346 | 0.0 | 1.6 | 0.03 | 2.44 | 2.26 | 95 | 1003.3 |
| 20260507022841 | 7 | 346 | 0.0 | 0.0 | 0.05 | 2.44 | 2.26 | 95 | 1003.9 |
| 20260507021342 | 7 | 346 | 0.0 | 3.2 | 0.03 | 2.41 | 2.24 | 95 | 1004.1 |
| 20260507015842 | 7 | 346 | 0.0 | 4.8 | 0.05 | 2.41 | 2.24 | 95 | 1004.3 |
| 20260507012844 | 7 | 347 | 0.0 | 0.0 | 0.08 | 2.39 | 2.21 | 95 | 1004.7 |
| 20260507011342 | 8 | 347 | 0.0 | 0.0 | 0.13 | 2.39 | 2.21 | 95 | 1004.7 |
| 20260507005842 | 8 | 347 | 0.0 | 0.0 | 0.13 | 2.36 | 2.18 | 95 | 1004.8 |
| 20260507004342 | 8 | 347 | 0.0 | 0.0 | 0.13 | 2.34 | 2.16 | 95 | 1004.9 |
| 20260507002842 | 8 | 347 | 0.0 | 0.0 | 0.10 | 2.31 | 2.13 | 95 | 1004.9 |
| 20260507001342 | 8 | 347 | 0.0 | 3.2 | 0.08 | 2.26 | 2.08 | 95 | 1005.0 |
| 20260507000542 | 8 | 347 | 0.0 | 1.6 | 0.05 | 2.24 | 2.06 | 94 | 1004.9 |
| 20260506234343 | 8 | 347 | 0.0 | 0.0 | 0.03 | 2.21 | 2.03 | 95 | 1004.9 |
| 20260506232842 | 8 | 347 | 0.0 | 1.6 | 0.03 | 2.21 | 2.03 | 94 | 1005.0 |
| 20260506231343 | 8 | 347 | 0.0 | 1.6 | 0.00 | 2.18 | 2.01 | 94 | 1004.8 |
| 20260506225844 | 8 | 348 | 0.0 | 4.8 | 0.03 | 2.18 | 2.01 | 94 | 1004.7 |
| 20260506224343 | 8 | 348 | 0.0 | 4.8 | 0.05 | 2.18 | 2.01 | 94 | 1004.9 |
| 20260506222842 | 8 | 350 | 0.0 | 4.8 | 0.08 | 2.18 | 2.01 | 94 | 1004.9 |
| 20260506221342 | 8 | 0 | 0.0 | 1.6 | 0.10 | 2.16 | 1.98 | 94 | 1005.0 |
| 20260506215838 | 8 | 0 | 0.0 | 0.0 | 0.13 | 2.16 | 1.98 | 94 | 1005.0 |
| 20260506214337 | 8 | 0 | 0.0 | 0.0 | 0.15 | 2.13 | 1.96 | 94 | 1005.2 |
| 20260506213534 | 8 | 0 | 0.0 | 0.0 | 0.15 | 2.11 | 1.93 | 93 | 1005.4 |
| 20260506211336 | 8 | 0 | 0.0 | 1.6 | 0.13 | 2.06 | 1.88 | 93 | 1005.6 |
| 20260506205836 | 8 | 0 | 0.0 | 4.8 | 0.15 | 2.03 | 1.85 | 93 | 1005.9 |
| 20260506204334 | 8 | 10 | 0.0 | 1.6 | 0.15 | 2.08 | 1.80 | 93 | 1005.6 |
| 20260506202835 | 8 | 331 | 0.0 | 0.0 | 0.15 | 2.18 | 1.78 | 93 | 1005.6 |
| 20260506201333 | 8 | 331 | 0.0 | 1.6 | 0.18 | 2.24 | 1.75 | 94 | 1005.7 |
| 20260506195832 | 8 | 331 | 0.0 | 4.8 | 0.18 | 2.24 | 1.70 | 94 | 1005.9 |
| 20260506194332 | 8 | 330 | 0.0 | 3.2 | 0.18 | 2.18 | 1.65 | 93 | 1006.1 |
| 20260506192833 | 8 | 331 | 0.0 | 0.0 | 0.20 | 2.16 | 1.63 | 93 | 1005.8 |
| 20260506191334 | 8 | 331 | 0.0 | 1.6 | 0.20 | 2.11 | 1.57 | 93 | 1006.3 |
| 20260506185832 | 8 | 331 | 0.0 | 1.6 | 0.20 | 2.06 | 1.52 | 92 | 1006.0 |
| 20260506184331 | 8 | 330 | 0.0 | 0.0 | 0.20 | 2.01 | 1.47 | 92 | 1006.6 |
| 20260506182833 | 8 | 330 | 0.0 | 0.0 | 0.20 | 1.96 | 1.42 | 92 | 1006.8 |
| 20260506181332 | 8 | 330 | 0.0 | 0.0 | 0.20 | 1.91 | 1.40 | 93 | 1007.2 |
| 20260506175832 | 8 | 330 | 0.0 | 0.0 | 0.23 | 1.85 | 1.32 | 93 | 1007.3 |
| 20260506174333 | 8 | 330 | 0.0 | 1.6 | 0.23 | 1.80 | 1.27 | 92 | 1007.4 |
| 20260506172833 | 8 | 330 | 0.0 | 0.0 | 0.20 | 1.73 | 1.22 | 93 | 1007.3 |
| 20260506171324 | 8 | 320 | 0.0 | 1.6 | 0.25 | 1.70 | 1.17 | 92 | 1007.5 |
| 20260506165824 | 8 | 320 | 0.0 | 1.6 | 0.20 | 1.63 | 1.09 | 92 | 1008.2 |
| 20260506164324 | 8 | 319 | 0.0 | 1.6 | 0.20 | 1.57 | 1.04 | 92 | 1008.1 |
| 20260506162824 | 8 | 319 | 0.0 | 4.8 | 0.20 | 1.52 | 0.99 | 91 | 1008.4 |
| 20260506161322 | 8 | 267 | 0.0 | 0.0 | 0.18 | 1.45 | 0.91 | 92 | 1008.4 |
| 20260506155822 | 8 | 267 | 0.0 | 6.4 | 0.20 | 1.42 | 0.89 | 91 | 1008.1 |
| 20260506154320 | 8 | 242 | 0.0 | 4.8 | 0.23 | 1.37 | 0.84 | 92 | 1008.6 |
| 20260506152822 | 8 | 242 | 1.6 | 6.4 | 0.25 | 1.32 | 0.79 | 91 | 1008.7 |
| 20260506151316 | 8 | 248 | 1.6 | 8.0 | 0.23 | 1.27 | 0.74 | 90 | 1008.8 |
| 20260506145816 | 8 | 229 | 0.0 | 6.4 | 0.23 | 1.22 | 0.69 | 90 | 1008.7 |
| 20260506144315 | 9 | 225 | 0.0 | 1.6 | 0.20 | 1.14 | 0.64 | 91 | 1008.2 |
| 20260506142814 | 9 | 225 | 0.0 | 6.4 | 0.20 | 1.07 | 0.56 | 91 | 1008.8 |
| 20260506141314 | 9 | 225 | 0.0 | 4.8 | 0.23 | 1.04 | 0.51 | 92 | 1008.7 |
| 20260506135811 | 9 | 225 | 0.0 | 0.0 | 0.25 | 0.99 | 0.46 | 92 | 1008.7 |